Showing default

LYNK TOWER 4, 55034

Orbit data source: Space-Track

LYNK TOWER 4, 55034 is a payload satellite owned by Lynk (US) in SSO that was launched on Tue, 03 Jan 2023 UTC via an FALCON 9 launch vehicle from the Air Force Eastern Test Range (AFETR). Payloads include a variety of satellites, spacecraft, and rockets equipped with specific instruments for various scientific and technological missions. These include communications satellites like Starlink; space stations such as the ISS; scientific satellites like the Hubble; Earth observation satellites from companies like Planet Labs, Umbra, and HawkEye 360; GPS; miniature CubeSats for education and research; and military/defense satellites.

Loading next visibility...
LYNK TOWER 4 details
Identifier
55034, 2023-001AB
Orbit
SSO
Last TLE update15 hours ago
Origin
Flag of USLynk (US)
ManufacturerLynk
MissionOperational Commercial Communications
Bus & MotorLYNK SHANNON, Unknown motor
Mass~80 kg wet, ~80 kg dry
Launch date (UTC)
2023-01-03 (2 years ago)
Launch vehicle
FALCON 9
Launch site
Air Force Eastern Test Range (AFETR)
Object type
Payload
Rocket body
Debris
Shape & HBRBox, 1 m
Radar Cross Section0.650 m², Medium (>0.1 m² and < 1m²)

Expand to show TLE details & history

TLE from 15 hours ago
0 LYNK TOWER 4
1 55034U 23001AB  25047.41268894  .00013410  00000-0  55968-3 0  9998
2 55034  97.3912 106.9775 0011155  50.6191 309.6032 15.23723729117609
Epoch: 2025-02-16T09:54Z
Definitive object data (Epoch: 2025-02-16T09:54:16.324Z)
Latitude-0.00006°
Longitude171.76338°
Altitude492.833 km
Speed7.621 km/s
True Right ascension07h 07m 54s
True Declination0° 00' 00"
Sunlit
Object was in full shadow at TLE epoch
Visualization TLE readout
Latitude-66.00886°
Longitude-170.75094°
Altitude522.922 km
Speed7.599 km/s
Apparent Right ascension13h 51m 48s
Apparent Declination-67° 14' 49"
Sunlit
Object is in daylight
Visualization observer readout
Local Sidereal Time04:10:58
Azimuth156.332° SSE
Elevation-56.652°
Doppler factor1
Orbital elements
Apogee altitude499.244 km
Perigee altitude483.918 km
Semi-major axis6,869.718 km
Eccentricity0.0011155
Inclination97.3912°
RAAN106.9775°
Arg. of periapsis50.6191°
True anomaly309.50462°
Mean anomaly309.6032°
Eccentric anomaly309.55392°
Mean motion3.81184 °/min
BSTAR0.00055968
Orbital period94.44 mins
Loading maneuver chart data...
Loading historical data...
Loading historical data...
Loading historical data...
Loading historical data...
Loading historical data...
Loading historical data...
Loading historical data...

LYNK TOWER 4 Visibility forecast

Observer location: undefined°, undefined

Span
Click to sort rows by Start time (UTC) header in descending order
Start Az.
Max El. time (UTC)
Max El. Az.
Max El.
End time (UTC)
End Az.
6 mins2025-02-17 03:22:19.171Z136.27° SSE2025-02-17 03:25:19.171Z76.866° E28.239°2025-02-17 03:28:19.171Z10.546° NNE
5 mins2025-02-17 16:25:19.171Z29.658° NE2025-02-17 16:27:19.171Z72.871° E35.229°2025-02-17 16:30:19.171Z169.794° S
|